Showing default

DTUSAT 2, 40030

Orbit data source: Space-Track

DTUSAT 2, 40030 is a payload satellite owned by DTU (DK) in SSO that was launched on Thu, 19 Jun 2014 UTC via a DNEPR launch vehicle from the Orenburg, Russia (OREN). Payload-class satellites include a variety of spacecraft equipped with specific instruments for various scientific and technological missions. These include communications satellites like Starlink; space stations such as the ISS; scientific satellites like the Hubble; Earth observation satellites from companies like Planet Labs, Umbra, and HawkEye 360; GPS; miniature CubeSats for education and research; and military/defense satellites.

Loading next visibility...
Identifier
40030, 2014-033W
Orbit
SSO
Country
Flag of DKDK / DEN
Related business
Manufacturer
DTU
Mission
Operational Amateur Communications
Bus & Motor
CUBESAT 1U, Unknown motor
Mass
1.333 kg wet, 1.333 kg dry
Launch date (UTC)
2014-06-19 (12 years ago)
Launch vehicle
DNEPR
Launch site
Orenburg, Russia (OREN)
Object type
Payload
Rocket body
Debris
Shape & HBR
Box, 0.1 m
Radar Cross Section
0.015 m², Medium (>0.1 m² and < 1m²)

Expand to show TLE details & history
Last TLE update: 23 hours ago

TLE from 23 hours ago
0 DTUSAT 2
1 40030U 14033W   26253.54295178  .00005021  00000-0  26540-3 0  9995
2 40030  98.0911 256.7779 0006348 312.8095  47.2602 15.15976161665616
Epoch: 2026-09-10T13:01Z
TLE epoch observation values (Epoch: 2026-09-10T13:01:51.033Z)
Latitude
-0.00001°
Longitude
71.73611°
Altitude
518.111 km
Speed
7.606 km/s
True Right ascension
17h 07m 06s
True Declination
0° 00' 00"
Sunlit
Object was in daylight at epoch
Visualization orbit readout
Latitude
Unknown
Longitude
Unknown
Altitude
Unknown
Speed
Unknown
Apparent Right ascension
Unknown
Apparent Declination
Unknown
Sunlit
N/A
Visualization observer readout
Local Sidereal Time
04:28:24
Azimuth
Unknown
Elevation
Unknown
Doppler factor
Unknown
Orbital elements
Apogee altitude
519.394 km
Perigee altitude
510.643 km
Semi-major axis
6,893.155 km
Eccentricity
0.00063
Inclination
98.0911°
RAAN
256.7779°
Arg. of periapsis
312.8095°
True anomaly
47.31365°
Mean anomaly
47.2602°
Eccentric anomaly
47.28692°
Mean motion
3.79242 °/min
Orbital period
94.93 mins
BSTAR
0.0002654
Loading maneuver chart data...
Computing Atmospheric mass density...
Loading historical data...
Loading historical data...
Loading historical data...
Loading historical data...
Loading historical data...
Loading historical data...
Loading historical data...

Documentation

Showing up to 5 results
|